HADYOS Weather Reports


time (UTC)temp
C
wind
direction
speed
KPH
gust
KPH
rain 1hr
cm
rain 24hr
cm
rain mn
cm
humidity
%
barometer
mb
20260504140905 17 355 4.8 24.1 0.00 0.00 0.00 57 1015.7
20260504081803 18 82 3.2 14.5 0.00 0.00 0.00 43 1016.4
20260504080903 18 82 3.2 16.1 0.00 0.00 0.00 46 1016.4
20260504080215 18 75 4.8 17.7 0.00 0.00 0.00 46 1016.4
20260504060217 16 100 3.2 14.5 0.00 0.00 0.00 55 1015.5
20260504050217 15 71 1.6 12.9 0.00 0.00 0.00 69 1015.5
20260504045403 15 63 1.6 11.3 0.00 0.00 0.00 70 1015.4
20260504044504 14 90 1.6 9.7 0.00 0.00 0.00 71 1015.5
20260504043603 14 100 1.6 9.7 0.00 0.00 0.00 70 1015.5
20260504042703 14 102 1.6 9.7 0.00 0.00 0.00 69 1015.5
20260504041803 14 65 1.6 11.3 0.00 0.00 0.00 68 1015.4
20260504040903 14 99 1.6 9.7 0.00 0.00 0.00 68 1015.3
20260504040004 14 60 1.6 12.9 0.00 0.00 0.00 67 1015.3
20260504035403 14 49 0.0 6.4 0.00 0.00 0.00 67 1015.3
20260504034503 13 102 0.0 9.7 0.00 0.00 0.00 67 1015.4
20260504033814 13 75 1.6 9.7 0.00 0.00 0.00 67 1015.2
20260504032703 13 104 1.6 8.0 0.00 0.00 0.00 68 1014.9
20260504031803 12 71 0.0 6.4 0.00 0.00 0.00 68 1014.8
20260504030903 12 96 0.0 9.7 0.00 0.00 0.00 69 1014.9
20260504030213 12 77 0.0 8.0 0.00 0.00 0.00 69 1015.0
20260504025403 12 60 0.0 8.0 0.00 0.00 0.00 70 1014.9
20260504024503 12 94 0.0 4.8 0.00 0.00 0.00 70 1015.0
20260504023603 12 113 0.0 6.4 0.00 0.00 0.00 71 1015.1
20260504022703 12 96 1.6 9.7 0.00 0.00 0.00 71 1015.1
20260504021803 12 43 0.0 11.3 0.00 0.00 0.00 72 1015.1
20260504020904 12 119 0.0 3.2 0.00 0.00 0.00 72 1015.2
20260504020004 12 98 0.0 4.8 0.00 0.00 0.00 72 1015.1
20260504015403 12 0 0.0 0.0 0.00 0.00 0.00 72 1015.0
20260504014503 12 84 0.0 4.8 0.00 0.00 0.00 72 1015.1
20260504013603 12 85 0.0 1.6 0.00 0.00 0.00 72 1015.1
20260504012912 12 0 0.0 0.0 0.00 0.00 0.00 72 1015.1
20260504011804 12 0 0.0 0.0 0.00 0.00 0.00 72 1015.1
20260504010903 12 0 0.0 0.0 0.00 0.00 0.00 72 1015.2
20260504010004 12 243 0.0 12.9 0.00 0.00 0.00 72 1015.1
20260504005403 12 232 1.6 12.9 0.00 0.00 0.00 72 1015.3
20260504004714 12 199 0.0 8.0 0.00 0.00 0.00 72 1015.3
20260504003603 12 104 0.0 8.0 0.00 0.00 0.00 72 1015.1
20260504002703 13 131 0.0 8.0 0.00 0.00 0.00 72 1015.2
20260504002016 13 87 1.6 6.4 0.00 0.00 0.00 73 1015.2
20260504000903 13 65 0.0 4.8 0.00 0.00 0.00 73 1015.1
20260504000004 13 33 0.0 9.7 0.00 0.00 0.00 73 1015.0
20260503235403 13 7 1.6 11.3 0.00 0.00 0.00 73 1015.0
20260503234503 13 58 1.6 8.0 0.00 0.00 0.00 73 1014.9
20260503233603 13 76 1.6 9.7 0.00 0.00 0.00 74 1014.9
20260503232703 13 12 0.0 8.0 0.00 0.00 0.00 74 1014.8
20260503231803 13 68 0.0 8.0 0.00 0.00 0.00 75 1014.8
20260503230903 13 63 1.6 8.0 0.00 0.00 0.00 75 1014.9
20260503230004 13 66 0.0 6.4 0.00 0.00 0.00 76 1014.9
20260503225403 13 54 1.6 8.0 0.00 0.00 0.00 76 1014.9
20260503224503 13 40 1.6 11.3 0.00 0.00 0.00 76 1014.6
20260503223817 13 28 1.6 11.3 0.00 0.00 0.00 77 1014.7
20260503222914 13 45 1.6 12.9 0.00 0.00 0.00 77 1014.6
20260503221803 14 360 0.0 9.7 0.00 0.00 0.00 76 1014.5
20260503220903 14 83 1.6 9.7 0.00 0.00 0.00 76 1014.6
20260503220004 14 71 1.6 9.7 0.00 0.00 0.00 75 1014.7
20260503215403 14 63 1.6 12.9 0.00 0.00 0.00 75 1014.9
20260503214503 14 311 1.6 12.9 0.00 0.00 0.00 74 1014.8
20260503213603 14 32 1.6 9.7 0.00 0.00 0.00 74 1014.9
20260503212915 14 49 1.6 9.7 0.00 0.00 0.00 74 1015.0
20260503211803 14 1 0.0 6.4 0.00 0.00 0.00 73 1015.0
20260503210903 14 353 0.0 4.8 0.00 0.00 0.00 73 1014.9
20260503210007 14 53 0.0 4.8 0.00 0.00 0.00 73 1014.9
20260503205403 14 47 0.0 4.8 0.00 0.00 0.00 73 1015.1
20260503204716 14 55 1.6 8.0 0.00 0.00 0.00 73 1015.2
20260503203603 14 360 1.6 9.7 0.00 0.00 0.00 72 1015.1
20260503202916 14 359 1.6 14.5 0.00 0.00 0.00 72 1015.0
20260503201803 14 14 1.6 11.3 0.00 0.00 0.00 72 1015.1
20260503200903 14 14 3.2 12.9 0.00 0.00 0.00 72 1015.0
20260503200004 14 333 4.8 17.7 0.00 0.00 0.00 73 1014.9
20260503195403 15 355 3.2 14.5 0.00 0.00 0.00 74 1015.0
20260503194503 15 334 4.8 17.7 0.00 0.00 0.00 74 1015.0
20260503193604 15 348 3.2 12.9 0.00 0.00 0.00 73 1014.8
20260503192703 15 7 4.8 19.3 0.00 0.00 0.00 73 1014.9
20260503191803 15 18 3.2 11.3 0.00 0.00 0.00 74 1014.7
20260503190903 15 22 3.2 11.3 0.00 0.00 0.00 74 1014.3
20260503190004 15 347 3.2 12.9 0.00 0.00 0.00 75 1014.4
20260503185403 15 338 3.2 14.5 0.00 0.00 0.00 74 1014.4
20260503184503 15 19 3.2 12.9 0.00 0.00 0.00 75 1014.3
20260503183604 15 344 3.2 16.1 0.00 0.00 0.00 75 1014.0
20260503182704 15 356 3.2 16.1 0.00 0.00 0.00 74 1014.0
20260503181803 15 68 1.6 12.9 0.00 0.00 0.00 73 1013.8
20260503180903 16 48 3.2 12.9 0.00 0.00 0.00 72 1013.5
20260503180005 16 50 1.6 19.3 0.00 0.00 0.00 73 1013.1
20260503175616 16 50 1.6 19.3 0.00 0.00 0.00 73 1013.4
20260503174503 16 13 3.2 16.1 0.00 0.00 0.00 74 1012.9
20260503173603 16 340 4.8 16.1 0.00 0.00 0.00 75 1012.9
20260503172703 16 69 1.6 14.5 0.00 0.00 0.00 75 1012.7
20260503171803 16 30 3.2 12.9 0.00 0.00 0.00 74 1012.5
20260503170903 17 21 3.2 12.9 0.00 0.00 0.00 74 1012.3
20260503150903 20 345 3.2 11.3 0.00 0.00 0.00 66 1011.5